User: anonymous   Login
Location: Wawayanda State Park
(41.1833°N, 74.4333°W)
Time: 18:25:40
(UTC-05:00)
Language:

RESURS DK-1 - Orbit

View from above orbital plane
View from above orbital plane
View from above satellite
View from above satellite

Ground track
Ground track

The orbit data is extracted from the following two-line orbital elements,

1 29228U 06021A   16042.38031605  .00000801  00000-0  68763-4 0  9994
2 29228  69.9372 269.0336 0004239 331.7349 151.2204 15.01768919534259
Epoch (UTC): 11 February 2016 09:07:39
Eccentricity: 0.0004239
inclination: 69.9372°
perigee height: 558 km
apogee height: 564 km
right ascension of ascending node: 269.0336°
argument of perigee: 331.7349°
revolutions per day: 15.01768919
mean anomaly at epoch: 151.2204°
orbit number at epoch: 53425

The dashed part of the orbit path shows where the satellite is in the earth's shadow,  

DLR